EDRS-C

Last updated on Fri Jul 10 2026 00:03:06 GMT+0000 (Coordinated Universal Time)

1 44475U 19049A 26190.31194634 -.00000249 00000+0 00000+0 0 9990 2 44475 0.0059 69.1550 0000921 50.5260 62.3596 1.00268674 25435
UTC large
Height (km)
Speed (km/s)
/
Latitude / Longitude
Inclination (degrees)
Orbital Period (minutes)
Azimuth
Elevation
Range (km)
Doppler Factor

Next 0 passes for location: London (51.5072 / 0.1276)

No passes found over London.
EDRS-C